| time (UTC) | temp F | wind direction | speed MPH | gust MPH | rain 1hr in | rain 24hr in | rain mn in | humidity % | barometer mb |
| 20260510223003 | 41 | 196 | 0.0 | 2.0 | 0.00 | 0.00 | 0.00 | 75 | 1015.2 |
| 20260510221503 | 42 | 7 | 1.0 | 4.0 | 0.00 | 0.00 | 0.00 | 74 | 1015.3 |
| 20260510220216 | 42 | 285 | 0.0 | 4.0 | 0.00 | 0.00 | 0.00 | 72 | 1015.5 |
| 20260510214503 | 44 | 5 | 1.0 | 10.0 | 0.00 | 0.00 | 0.00 | 70 | 1015.6 |
| 20260510213003 | 44 | 3 | 3.0 | 10.0 | 0.00 | 0.00 | 0.00 | 68 | 1015.8 |
| 20260510211503 | 45 | 5 | 4.0 | 11.0 | 0.00 | 0.00 | 0.00 | 67 | 1015.8 |
| 20260510210003 | 45 | 10 | 4.0 | 9.0 | 0.00 | 0.00 | 0.00 | 68 | 1015.7 |
| 20260510204718 | 46 | 60 | 1.0 | 5.0 | 0.00 | 0.00 | 0.00 | 68 | 1015.6 |
| 20260510203003 | 47 | 45 | 2.0 | 6.0 | 0.00 | 0.00 | 0.00 | 66 | 1015.6 |
| 20260510201503 | 47 | 56 | 2.0 | 8.0 | 0.00 | 0.00 | 0.00 | 68 | 1015.6 |
| 20260510200003 | 48 | 9 | 2.0 | 6.0 | 0.00 | 0.00 | 0.00 | 66 | 1015.5 |
| 20260510194503 | 49 | 9 | 3.0 | 8.0 | 0.00 | 0.00 | 0.00 | 62 | 1015.4 |
| 20260510193003 | 51 | 7 | 4.0 | 13.0 | 0.00 | 0.00 | 0.00 | 58 | 1015.3 |
| 20260510191504 | 52 | 45 | 2.0 | 7.0 | 0.00 | 0.00 | 0.00 | 56 | 1015.4 |
| 20260510190003 | 52 | 42 | 1.0 | 4.0 | 0.00 | 0.00 | 0.00 | 57 | 1015.3 |
| 20260510184503 | 52 | 39 | 1.0 | 4.0 | 0.00 | 0.00 | 0.00 | 57 | 1015.5 |
| 20260510183217 | 52 | 54 | 5.0 | 10.0 | 0.00 | 0.00 | 0.00 | 56 | 1015.6 |
| 20260510181503 | 52 | 58 | 4.0 | 10.0 | 0.00 | 0.00 | 0.00 | 56 | 1015.7 |
| 20260510180003 | 53 | 54 | 6.0 | 11.0 | 0.00 | 0.00 | 0.00 | 53 | 1015.7 |
| 20260510174503 | 53 | 51 | 7.0 | 12.0 | 0.00 | 0.00 | 0.00 | 52 | 1015.8 |
| 20260510173003 | 54 | 52 | 5.0 | 12.0 | 0.00 | 0.00 | 0.00 | 51 | 1015.8 |
| 20260510171503 | 54 | 49 | 5.0 | 13.0 | 0.00 | 0.00 | 0.00 | 51 | 1015.8 |
| 20260510170218 | 54 | 38 | 5.0 | 12.0 | 0.00 | 0.00 | 0.00 | 51 | 1015.9 |
| 20260510164503 | 54 | 56 | 5.0 | 12.0 | 0.00 | 0.00 | 0.00 | 52 | 1016.3 |
| 20260510163003 | 54 | 45 | 6.0 | 14.0 | 0.00 | 0.00 | 0.00 | 52 | 1016.5 |
| 20260510161719 | 56 | 51 | 6.0 | 11.0 | 0.00 | 0.00 | 0.00 | 47 | 1016.5 |
| 20260510160003 | 55 | 49 | 5.0 | 13.0 | 0.00 | 0.00 | 0.00 | 50 | 1016.8 |
| 20260510154503 | 56 | 42 | 3.0 | 6.0 | 0.00 | 0.00 | 0.00 | 45 | 1016.8 |
| 20260510153003 | 55 | 31 | 6.0 | 13.0 | 0.00 | 0.00 | 0.00 | 47 | 1017.0 |
| 20260510151503 | 56 | 45 | 7.0 | 12.0 | 0.00 | 0.00 | 0.00 | 50 | 1017.1 |
| 20260510150003 | 54 | 36 | 6.0 | 12.0 | 0.00 | 0.00 | 0.00 | 51 | 1017.3 |
| 20260510144716 | 56 | 46 | 6.0 | 11.0 | 0.00 | 0.00 | 0.00 | 50 | 1017.3 |
| 20260510143003 | 56 | 55 | 5.0 | 13.0 | 0.00 | 0.00 | 0.00 | 51 | 1017.6 |
| 20260510141503 | 55 | 47 | 9.0 | 17.0 | 0.00 | 0.00 | 0.00 | 56 | 1017.8 |
| 20260510140003 | 56 | 36 | 7.0 | 16.0 | 0.00 | 0.00 | 0.00 | 50 | 1017.6 |
| 20260510134503 | 55 | 52 | 7.0 | 14.0 | 0.00 | 0.00 | 0.00 | 56 | 1017.8 |
| 20260510133003 | 54 | 60 | 7.0 | 13.0 | 0.00 | 0.00 | 0.00 | 56 | 1017.9 |
| 20260510131504 | 54 | 51 | 8.0 | 16.0 | 0.00 | 0.00 | 0.00 | 62 | 1017.9 |
| 20260510130003 | 54 | 30 | 8.0 | 14.0 | 0.00 | 0.00 | 0.00 | 58 | 1018.1 |
| 20260510124716 | 54 | 53 | 6.0 | 13.0 | 0.00 | 0.00 | 0.00 | 59 | 1018.2 |
| 20260510123218 | 53 | 56 | 7.0 | 15.0 | 0.00 | 0.00 | 0.00 | 61 | 1018.4 |
| 20260510121503 | 53 | 55 | 6.0 | 11.0 | 0.00 | 0.00 | 0.00 | 61 | 1018.6 |
| 20260510120003 | 52 | 55 | 7.0 | 13.0 | 0.00 | 0.00 | 0.00 | 64 | 1018.8 |
| 20260510114719 | 52 | 57 | 7.0 | 12.0 | 0.00 | 0.00 | 0.00 | 64 | 1018.9 |
| 20260510113003 | 52 | 54 | 10.0 | 19.0 | 0.00 | 0.00 | 0.00 | 67 | 1019.1 |
| 20260510111503 | 52 | 42 | 7.0 | 14.0 | 0.00 | 0.00 | 0.00 | 68 | 1019.3 |
| 20260510110003 | 50 | 52 | 7.0 | 15.0 | 0.00 | 0.00 | 0.00 | 71 | 1019.7 |
| 20260510104503 | 49 | 51 | 7.0 | 15.0 | 0.00 | 0.00 | 0.00 | 71 | 1019.7 |
| 20260510103218 | 49 | 61 | 8.0 | 14.0 | 0.00 | 0.00 | 0.00 | 72 | 1019.9 |
| 20260510101503 | 49 | 58 | 9.0 | 15.0 | 0.00 | 0.00 | 0.00 | 72 | 1020.0 |
| 20260510100003 | 49 | 66 | 7.0 | 12.0 | 0.00 | 0.00 | 0.00 | 74 | 1020.1 |
| 20260510094503 | 48 | 55 | 7.0 | 12.0 | 0.00 | 0.00 | 0.00 | 76 | 1020.2 |
| 20260510093003 | 48 | 53 | 8.0 | 16.0 | 0.00 | 0.00 | 0.00 | 76 | 1020.3 |
| 20260510091503 | 48 | 59 | 8.0 | 14.0 | 0.00 | 0.00 | 0.00 | 78 | 1020.3 |
| 20260510090219 | 47 | 56 | 9.0 | 17.0 | 0.00 | 0.00 | 0.00 | 78 | 1020.4 |
| 20260510084718 | 46 | 57 | 8.0 | 14.0 | 0.00 | 0.00 | 0.00 | 79 | 1020.5 |
| 20260510083003 | 46 | 58 | 6.0 | 13.0 | 0.00 | 0.00 | 0.00 | 81 | 1020.4 |
| 20260510081503 | 46 | 58 | 6.0 | 12.0 | 0.00 | 0.00 | 0.00 | 82 | 1020.4 |
| 20260510080003 | 46 | 53 | 6.0 | 13.0 | 0.00 | 0.00 | 0.00 | 84 | 1020.4 |
| 20260510074503 | 45 | 59 | 6.0 | 11.0 | 0.00 | 0.00 | 0.00 | 84 | 1020.4 |
| 20260510073003 | 45 | 59 | 6.0 | 11.0 | 0.00 | 0.00 | 0.00 | 85 | 1020.4 |
| 20260510071503 | 45 | 55 | 6.0 | 15.0 | 0.00 | 0.00 | 0.00 | 85 | 1020.3 |
| 20260510070003 | 45 | 60 | 9.0 | 15.0 | 0.00 | 0.00 | 0.00 | 86 | 1020.3 |
| 20260510064717 | 45 | 54 | 7.0 | 13.0 | 0.00 | 0.00 | 0.00 | 88 | 1020.3 |
| 20260510063003 | 45 | 52 | 6.0 | 13.0 | 0.00 | 0.00 | 0.00 | 88 | 1020.2 |
| 20260510061503 | 45 | 57 | 7.0 | 12.0 | 0.00 | 0.00 | 0.00 | 89 | 1020.1 |
| 20260510060003 | 45 | 53 | 5.0 | 15.0 | 0.00 | 0.00 | 0.00 | 89 | 1020.2 |
| 20260510054503 | 45 | 46 | 5.0 | 14.0 | 0.00 | 0.00 | 0.00 | 89 | 1020.0 |
| 20260510053216 | 45 | 51 | 6.0 | 14.0 | 0.00 | 0.00 | 0.00 | 89 | 1020.0 |
| 20260510051503 | 45 | 55 | 6.0 | 12.0 | 0.00 | 0.00 | 0.00 | 91 | 1020.1 |
| 20260510050003 | 45 | 47 | 6.0 | 12.0 | 0.00 | 0.00 | 0.00 | 91 | 1020.1 |
| 20260510044503 | 45 | 40 | 5.0 | 10.0 | 0.00 | 0.00 | 0.00 | 92 | 1020.2 |
| 20260510043003 | 45 | 32 | 3.0 | 9.0 | 0.00 | 0.00 | 0.00 | 92 | 1020.2 |
| 20260510041503 | 45 | 25 | 4.0 | 9.0 | 0.00 | 0.00 | 0.00 | 92 | 1020.1 |
| 20260510040003 | 45 | 34 | 5.0 | 11.0 | 0.00 | 0.00 | 0.00 | 92 | 1020.2 |
| 20260510034716 | 45 | 44 | 5.0 | 11.0 | 0.00 | 0.00 | 0.00 | 92 | 1020.3 |
| 20260510033003 | 46 | 30 | 4.0 | 9.0 | 0.00 | 0.00 | 0.00 | 91 | 1020.5 |
| 20260510031503 | 46 | 53 | 6.0 | 12.0 | 0.00 | 0.00 | 0.00 | 91 | 1020.5 |
| 20260510030003 | 46 | 52 | 6.0 | 11.0 | 0.00 | 0.00 | 0.00 | 91 | 1020.5 |
| 20260510024503 | 46 | 50 | 4.0 | 10.0 | 0.00 | 0.00 | 0.00 | 91 | 1020.6 |
| 20260510023003 | 46 | 46 | 5.0 | 10.0 | 0.00 | 0.00 | 0.00 | 91 | 1020.7 |
| 20260510021503 | 46 | 41 | 5.0 | 10.0 | 0.00 | 0.00 | 0.00 | 91 | 1020.7 |
| 20260510020003 | 46 | 51 | 6.0 | 13.0 | 0.00 | 0.00 | 0.00 | 91 | 1020.6 |
| 20260510014503 | 46 | 61 | 8.0 | 16.0 | 0.00 | 0.00 | 0.00 | 89 | 1020.6 |
| 20260510013003 | 47 | 49 | 9.0 | 17.0 | 0.00 | 0.00 | 0.00 | 91 | 1020.4 |
| 20260510011503 | 47 | 42 | 6.0 | 13.0 | 0.00 | 0.00 | 0.00 | 89 | 1020.5 |
| 20260510010003 | 47 | 54 | 8.0 | 14.0 | 0.00 | 0.00 | 0.00 | 91 | 1020.5 |
| 20260510004503 | 48 | 54 | 9.0 | 14.0 | 0.00 | 0.00 | 0.00 | 91 | 1020.5 |
| 20260510003003 | 48 | 58 | 6.0 | 10.0 | 0.00 | 0.00 | 0.00 | 91 | 1020.5 |
| 20260510001503 | 48 | 59 | 7.0 | 13.0 | 0.00 | 0.00 | 0.00 | 91 | 1020.4 |
| 20260510000003 | 48 | 57 | 11.0 | 17.0 | 0.00 | 0.00 | 0.00 | 89 | 1020.5 |
| 20260509234503 | 48 | 48 | 6.0 | 14.0 | 0.00 | 0.00 | 0.00 | 89 | 1020.7 |
| 20260509233218 | 48 | 57 | 9.0 | 15.0 | 0.00 | 0.00 | 0.00 | 89 | 1020.6 |
| 20260509231503 | 49 | 63 | 6.0 | 13.0 | 0.00 | 0.00 | 0.00 | 89 | 1020.5 |
| 20260509230003 | 49 | 45 | 8.0 | 17.0 | 0.00 | 0.00 | 0.00 | 88 | 1020.5 |